Regional Weather Roundup
Issued by NWS

Home | Current Version | Previous Version | Graphics & Text | Print | Product List | Glossary On
Versions: 1 2 3 4 5 6 7 8 9 10 11 12 13 14 15 16 17 18 19 20 21 22 23 24 25 26 27 28 29 30 31 32 33 34 35 36 37 38 39 40 41 42 43 44 45 46 47 48 49 50
920
ASUS44 KJAN 062110
RWRMS

MISSISSIPPI HOURLY WEATHER ROUNDUP
NATIONAL WEATHER SERVICE JACKSON MS
300 PM CST FRI MAR 06 2015

NOTE: "FAIR: INDICATES FEW OR NO CLOUDS BELOW 12,000 FEET WITH NO
SIGNIFICANT WEATHER AND/OR OBSTRUCTIONS TO VISIBILITY.

MSZ001>002-007>008-010>013-018>021-025>028-034>036-062200-
NORTHWEST MISSISSIPPI

CITY           SKY/WX    TMP DP  RH WIND       PRES   REMARKS
CLARKSDALE     FAIR      34  19  55 CALM      30.56F
CLEVELAND      FAIR      38  23  54 N8        30.55S WCI  32
GREENWOOD      SUNNY     43  19  38 VRB6      30.52F
GREENVILLE     SUNNY     40  22  48 N6        30.54F
OLIVE BRANCH   SUNNY     36  18  48 CALM      30.51F
OXFORD         FAIR      41  10  28 NW7       30.52R
TUNICA         CLEAR     36  18  48 CALM      30.55F
$$

MSZ003>006-009-014>017-022>024-029>033-037>039-062200-
NORTHEAST MISSISSIPPI

CITY           SKY/WX    TMP DP  RH WIND       PRES   REMARKS
COLUMBUS AFB   SUNNY     43  13  30 N6        30.48F
CORINTH        FAIR      41  10  28 N6        30.48F
GOLDN TRIANGLE SUNNY     43  25  49 N9        30.48F
STARKVILLE     FAIR      43  18  36 N10       30.48F
TUPELO         SUNNY     41  14  33 NE6       30.49F
$$

MSZ040-058-062200-
CENTRAL MISSISSIPPI

CITY           SKY/WX    TMP DP  RH WIND       PRES   REMARKS
JACKSON INTL   MOSUNNY   47  19  33 NE10      30.48F
JACKSON HAWKNS SUNNY     47  18  31 N7        30.48F
MERIDIAN KEY   SUNNY     49  14  24 N12       30.45F
MERIDIAN NAS   NOT AVBL
VICKSBURG      SUNNY     44  23  43 N12       30.52F
$$

MSZ059>079-062200-
SOUTH MISSISSIPPI

CITY           SKY/WX    TMP DP  RH WIND       PRES   REMARKS
BROOKHAVEN     FAIR      48  23  37 NW10      30.45F
HATTIESBURG    SUNNY     53  12  19 N10       30.42F
MCCOMB         MOSUNNY   52  11  19 N14       30.43F
NATCHEZ        MOSUNNY   45  19  36 NW9G17    30.48F
PINE BELT      SUNNY     54  16  22 N8        30.43F
$$

MSZ080>082-062200-
COASTAL MISSISSIPPI

CITY           SKY/WX    TMP DP  RH WIND       PRES   REMARKS
BAY ST LOUIS   SUNNY     54   1  12 N9G20     30.40F
BILOXI         PTSUNNY   55  17  22 N14G21    30.38F
PASCAGOULA     MOSUNNY   55  15  20 N14G25    30.39S
GULFPORT       PTSUNNY   55  14  19 NE14G22   30.39F
$$



USA.gov is the U.S. government's official web portal to all federal, state and local government web resources and services.